TimeMST,TemperatureF,Dew PointF,Humidity,Sea Level PressureIn,VisibilityMPH,Wind Direction,Wind SpeedMPH,Gust SpeedMPH,PrecipitationIn,Events,Conditions,WindDirDegrees,DateUTC
12:51 AM,37.0,10.9,34,29.62,10.0,WNW,10.4,-,N/A,,Overcast,290,2011-11-18 07:51:00
2:51 AM,35.1,10.9,37,29.65,10.0,WNW,10.4,-,N/A,,Overcast,290,2011-11-18 09:51:00
3:51 AM,33.1,12.0,42,29.64,10.0,West,9.2,-,N/A,,Overcast,280,2011-11-18 10:51:00
5:51 AM,30.9,12.0,46,29.66,10.0,WNW,8.1,-,N/A,,Overcast,290,2011-11-18 12:51:00
6:51 AM,30.0,12.9,49,29.68,10.0,NW,6.9,-,N/A,,Mostly Cloudy,310,2011-11-18 13:51:00
8:51 AM,28.9,18.0,64,29.74,10.0,WNW,11.5,-,N/A,,Partly Cloudy,300,2011-11-18 15:51:00
9:51 AM,27.0,19.9,75,29.77,10.0,NNW,17.3,-,N/A,,Scattered Clouds,340,2011-11-18 16:51:00
10:00 AM,26.6,19.4,74,29.71,10.0,NW,13.8,-,N/A,,Mostly Cloudy,320,2011-11-18 17:00:00
10:08 AM,26.6,17.6,69,29.71,10.0,NW,13.8,-,N/A,,Scattered Clouds,310,2011-11-18 17:08:00
10:51 AM,24.1,14.0,65,29.78,10.0,NW,13.8,-,N/A,,Partly Cloudy,310,2011-11-18 17:51:00
11:07 AM,24.8,15.8,69,29.71,10.0,NW,11.5,-,N/A,,Mostly Cloudy,320,2011-11-18 18:07:00
11:51 AM,23.0,14.0,68,29.79,10.0,NW,12.7,-,N/A,,Mostly Cloudy,320,2011-11-18 18:51:00
12:03 PM,23.0,14.0,68,29.71,10.0,NNW,13.8,-,N/A,,Mostly Cloudy,330,2011-11-18 19:03:00
12:26 PM,23.0,14.0,68,29.71,10.0,NW,13.8,-,N/A,,Mostly Cloudy,320,2011-11-18 19:26:00
12:51 PM,23.0,14.0,68,29.80,10.0,NNW,12.7,-,N/A,,Overcast,330,2011-11-18 19:51:00
1:51 PM,21.9,12.0,66,29.81,10.0,NNW,16.1,-,N/A,,Overcast,330,2011-11-18 20:51:00
2:15 PM,21.2,10.4,63,29.74,10.0,NW,16.1,-,N/A,,Scattered Clouds,320,2011-11-18 21:15:00
2:51 PM,19.9,9.0,62,29.83,10.0,NNW,16.1,-,N/A,,Clear,330,2011-11-18 21:51:00
3:51 PM,19.0,8.1,62,29.87,10.0,NNW,13.8,-,N/A,,Partly Cloudy,340,2011-11-18 22:51:00
4:51 PM,17.1,8.1,68,29.89,10.0,NNW,10.4,-,N/A,,Clear,330,2011-11-18 23:51:00
5:51 PM,16.0,6.1,65,29.92,10.0,North,8.1,-,N/A,,Clear,350,2011-11-19 00:51:00
6:51 PM,12.9,3.0,65,29.96,10.0,North,10.4,-,N/A,,Overcast,10,2011-11-19 01:51:00
7:51 PM,10.9,1.9,67,29.96,10.0,NNE,11.5,-,N/A,,Scattered Clouds,20,2011-11-19 02:51:00
8:51 PM,9.0,1.9,73,29.96,10.0,NNE,8.1,-,N/A,,Partly Cloudy,20,2011-11-19 03:51:00
9:51 PM,8.1,1.9,76,29.97,10.0,NNE,9.2,-,N/A,,Overcast,20,2011-11-19 04:51:00
10:51 PM,7.0,1.9,80,29.98,10.0,North,10.4,-,N/A,,Overcast,10,2011-11-19 05:51:00
11:51 PM,6.1,1.0,80,30.00,10.0,NNE,9.2,-,N/A,,Overcast,30,2011-11-19 06:51:00